Probability
0 0 0 0 0 0 3 3 3 3 10 10 13 10 16 10 10 10 16 32 65 65 55 55 52 52 48 45 42 32 35 39 45 42 42 39 39 39 35 29 35 39 45
0 0 0 0 3 3 3 3 3 6 10 13 13 13 13 19 13 10 13 13 35 61 58 48 45 52 55 45 42 39 39 42 45 35 42 42 45 42 35 35 35 39 42
0 0 3 3 3 3 6 6 3 10 10 13 13 16 16 16 10 6 6 6 10 29 45 55 55 55 58 48 42 39 42 45 42 35 35 35 39 39 32 29 29 39 39
0 3 3 3 3 0 3 3 6 6 10 6 6 6 6 13 6 3 3 6 10 10 26 55 48 45 52 45 45 45 45 42 39 39 35 32 39 42 35 29 29 29 32
3 3 3 6 3 3 6 6 10 6 6 6 6 3 0 3 0 0 6 6 10 6 6 13 42 48 42 48 42 48 52 48 39 39 39 32 35 42 39 32 35 29 29
3 3 6 10 10 10 10 10 10 10 10 10 3 0 0 0 0 3 3 3 3 6 10 10 13 29 39 48 48 35 39 45 45 42 42 35 32 35 35 35 26 23 35
10 3 10 3 13 13 13 13 10 10 6 6 0 3 0 0 0 3 3 6 6 6 10 13 13 13 19 29 39 42 39 42 35 42 39 35 39 35 35 35 29 29 32
16 13 10 10 13 13 10 10 10 10 6 6 6 6 6 6 6 3 3 6 3 6 10 10 13 13 10 10 13 19 42 35 35 35 39 39 39 39 35 29 35 29 23
13 13 10 10 13 13 13 13 13 13 13 6 6 6 6 13 10 10 10 6 6 3 6 6 13 13 6 6 10 6 13 26 26 26 29 19 26 26 29 35 35 35 29
10 13 13 13 10 10 10 10 13 13 10 10 6 6 6 6 13 13 13 13 13 13 10 6 10 10 10 10 6 6 10 16 19 26 23 23 19 23 29 29 29 29 26
6 10 10 10 10 10 10 6 10 13 10 10 10 10 13 6 6 13 13 13 13 16 13 13 16 10 13 10 10 6 6 6 13 19 23 23 19 26 23 26 29 26 26
3 3 10 10 10 10 10 6 10 13 10 6 6 10 16 16 16 13 13 13 13 13 13 13 13 16 13 13 13 10 6 3 3 3 10 16 19 26 26 16 23 23 26
10 10 10 10 13 13 13 13 13 13 19 16 16 16 16 16 16 16 16 16 13 13 13 13 13 13 13 13 13 10 10 3 3 0 0 3 6 10 13 16 19 19 19
10 10 13 13 16 13 16 19 19 19 19 19 19 19 16 16 13 16 13 13 13 13 10 13 13 13 13 13 13 10 13 6 3 0 0 0 0 3 6 6 6 6 13
10 10 13 16 13 19 19 19 19 19 19 19 19 16 19 19 16 16 13 13 16 13 16 13 13 13 13 13 13 13 13 10 3 3 0 0 0 0 3 3 3 3 3
10 10 13 19 19 23 19 23 16 19 16 16 13 13 16 16 16 13 13 13 13 13 16 16 16 16 13 13 13 13 13 6 6 3 3 3 0 0 0 0 0 3 3
10 10 16 19 16 23 26 26 16 16 13 16 13 16 16 19 16 13 13 13 13 13 16 16 13 16 16 16 13 13 13 10 10 3 3 3 0 0 0 0 0 0 0
13 10 10 13 13 23 23 23 16 19 16 16 19 26 19 19 13 13 16 16 16 16 16 16 16 16 19 19 13 13 10 6 10 3 3 0 0 0 0 0 0 0 0
16 13 19 19 23 23 23 19 16 19 19 19 26 26 23 19 13 16 19 16 16 13 16 16 16 19 19 10 13 10 3 3 3 3 0 0 0 0 0 0 0 0 0
10 19 26 26 26 23 26 19 13 19 19 23 23 23 19 19 19 16 16 19 16 16 16 13 13 19 19 16 10 10 6 10 6 6 3 0 0 0 0 0 0 0 0
16 23 23 23 23 32 26 19 19 16 16 19 19 19 19 19 13 13 16 19 19 16 19 19 19 16 19 13 13 13 13 6 6 3 6 6 6 10 10 10 0 0 0
16 13 13 19 16 19 16 10 16 16 16 16 19 16 16 13 10 3 3 3 3 16 19 19 19 19 19 13 13 13 10 10 10 10 6 10 6 10 10 10 6 0 0
23 19 13 13 16 16 3 3 3 13 16 16 16 16 16 13 6 10 3 3 3 0 6 16 19 19 16 16 13 10 10 10 10 10 3 10 10 10 10 10 0 0 0
23 23 19 13 16 13 3 0 0 0 16 16 16 16 16 19 10 10 10 10 16 10 13 10 13 16 13 10 10 10 10 10 6 6 3 6 10 10 6 6 0 0 0
23 19 16 19 16 13 10 3 0 6 10 10 10 10 10 6 6 3 10 10 10 13 3 3 6 3 3 0 3 10 6 6 10 6 3 6 10 3 3 3 0 0 0
26 16 16 16 16 16 6 6 3 6 10 10 10 10 3 3 3 3 3 6 10 10 6 10 3 3 3 3 0 3 10 6 10 6 6 6 3 3 3 3 0 0 0
Height
5883 5884 5884 5884 5884 5884 5883 5883 5883 5883 5883 5883 5882 5882 5882 5882 5881 5881 5880 5880 5880 5880 5879 5879 5879 5878 5878 5878 5877 5877 5876 5876 5876 5875 5875 5875 5874 5874 5874 5874 5874 5874 5875
5885 5885 5885 5885 5885 5884 5884 5884 5884 5883 5883 5883 5882 5882 5882 5881 5881 5881 5880 5880 5880 5879 5878 5878 5877 5876 5876 5875 5875 5874 5874 5873 5873 5872 5872 5872 5872 5871 5871 5872 5872 5872 5872
5886 5886 5886 5885 5885 5885 5885 5885 5884 5883 5883 5882 5882 5882 5881 5881 5880 5880 5879 5879 5878 5878 5877 5876 5876 5875 5874 5873 5873 5872 5871 5870 5870 5869 5869 5869 5868 5868 5868 5868 5869 5868 5868
5887 5887 5887 5886 5886 5885 5885 5885 5884 5884 5883 5883 5882 5881 5881 5880 5880 5879 5878 5878 5877 5876 5876 5875 5874 5873 5872 5871 5870 5869 5869 5868 5867 5866 5866 5866 5865 5865 5865 5865 5865 5865 5865
5888 5888 5887 5887 5886 5886 5885 5885 5884 5884 5883 5882 5882 5881 5880 5879 5878 5878 5877 5876 5875 5875 5874 5873 5872 5871 5870 5869 5868 5867 5866 5865 5864 5863 5863 5862 5862 5861 5861 5861 5861 5861 5861
5888 5888 5888 5887 5886 5886 5885 5884 5884 5883 5882 5881 5881 5880 5879 5878 5877 5876 5875 5875 5874 5873 5872 5871 5870 5869 5868 5867 5866 5864 5863 5862 5861 5860 5860 5859 5858 5858 5858 5858 5858 5858 5858
5889 5888 5888 5887 5886 5886 5885 5884 5883 5883 5882 5881 5880 5879 5878 5876 5875 5874 5873 5873 5872 5871 5870 5869 5868 5866 5865 5864 5863 5862 5860 5859 5858 5857 5856 5856 5855 5854 5854 5854 5854 5854 5854
5889 5888 5888 5887 5886 5885 5884 5883 5882 5882 5881 5880 5878 5877 5876 5876 5874 5872 5871 5870 5869 5868 5867 5866 5865 5863 5862 5861 5860 5859 5857 5856 5855 5854 5853 5852 5851 5851 5850 5850 5850 5850 5850
5889 5888 5887 5887 5886 5885 5883 5882 5881 5880 5879 5878 5877 5876 5874 5873 5872 5871 5869 5868 5866 5865 5864 5863 5862 5860 5859 5858 5856 5855 5853 5852 5851 5850 5849 5848 5847 5846 5846 5846 5846 5846 5845
5889 5888 5887 5886 5885 5884 5883 5881 5880 5879 5878 5876 5875 5873 5872 5871 5869 5868 5867 5865 5864 5862 5861 5859 5858 5856 5855 5854 5853 5851 5850 5848 5847 5846 5845 5844 5843 5842 5842 5841 5841 5841 5841
5888 5888 5887 5886 5884 5883 5882 5880 5879 5877 5876 5874 5873 5871 5870 5868 5866 5865 5864 5863 5861 5859 5858 5856 5854 5852 5851 5850 5848 5847 5846 5844 5843 5842 5841 5840 5839 5838 5837 5837 5836 5836 5836
5888 5887 5886 5885 5883 5882 5880 5879 5877 5876 5874 5872 5871 5869 5867 5866 5864 5862 5860 5859 5857 5856 5854 5852 5850 5849 5847 5846 5844 5843 5841 5840 5839 5838 5837 5836 5834 5834 5833 5832 5831 5831 5830
5887 5886 5885 5884 5882 5881 5879 5877 5875 5874 5872 5870 5868 5866 5864 5863 5861 5859 5857 5855 5854 5852 5850 5848 5847 5845 5844 5842 5840 5838 5837 5835 5834 5833 5832 5831 5830 5829 5828 5827 5826 5825 5825
5886 5885 5884 5882 5881 5879 5877 5875 5873 5871 5869 5867 5865 5863 5861 5860 5858 5856 5854 5852 5850 5848 5847 5845 5843 5841 5840 5838 5836 5834 5833 5831 5830 5828 5827 5826 5824 5823 5822 5821 5820 5820 5819
5885 5883 5882 5880 5878 5877 5875 5873 5871 5869 5867 5865 5862 5860 5858 5856 5854 5852 5850 5848 5846 5844 5843 5840 5839 5837 5835 5833 5831 5829 5828 5826 5825 5823 5822 5820 5819 5818 5816 5815 5814 5814 5813
5883 5881 5880 5878 5876 5874 5872 5870 5868 5866 5864 5862 5859 5857 5855 5853 5851 5849 5846 5844 5842 5840 5838 5836 5834 5832 5830 5828 5826 5824 5822 5821 5819 5818 5816 5815 5813 5812 5811 5809 5808 5807 5806
5881 5879 5877 5876 5874 5872 5870 5868 5865 5863 5861 5858 5856 5854 5852 5849 5847 5845 5842 5840 5838 5836 5833 5831 5828 5827 5825 5823 5821 5819 5817 5815 5813 5812 5810 5809 5807 5806 5804 5803 5801 5800 5799
5878 5876 5874 5873 5871 5869 5867 5864 5862 5860 5857 5855 5852 5850 5848 5845 5843 5840 5838 5835 5833 5831 5828 5826 5824 5821 5819 5818 5815 5813 5811 5809 5807 5805 5804 5802 5801 5799 5797 5796 5794 5793 5792
5874 5873 5871 5869 5867 5865 5862 5860 5858 5855 5853 5851 5848 5846 5843 5841 5838 5835 5833 5830 5828 5825 5823 5821 5818 5816 5814 5812 5810 5808 5805 5803 5800 5798 5797 5795 5793 5792 5790 5788 5787 5785 5784
5870 5869 5867 5864 5862 5860 5858 5856 5853 5851 5848 5846 5843 5841 5838 5835 5833 5830 5827 5825 5822 5820 5817 5815 5813 5810 5808 5806 5804 5802 5800 5797 5795 5793 5791 5789 5787 5784 5783 5781 5779 5778 5776
5866 5864 5862 5860 5858 5855 5853 5851 5848 5846 5843 5841 5838 5835 5832 5830 5827 5824 5821 5819 5816 5814 5811 5809 5807 5805 5803 5800 5798 5796 5794 5791 5789 5787 5785 5782 5780 5778 5776 5774 5772 5770 5769
5862 5860 5858 5855 5853 5851 5848 5846 5843 5840 5838 5835 5832 5829 5827 5824 5821 5818 5815 5813 5810 5808 5806 5803 5801 5799 5797 5794 5792 5789 5787 5785 5783 5781 5778 5776 5774 5771 5769 5767 5765 5763 5761
5857 5855 5852 5850 5848 5845 5843 5840 5837 5835 5832 5830 5827 5824 5821 5818 5815 5812 5810 5807 5804 5802 5800 5797 5795 5793 5790 5788 5786 5783 5780 5777 5775 5773 5771 5769 5766 5764 5761 5759 5757 5755 5752
5851 5849 5847 5844 5842 5839 5837 5834 5831 5829 5826 5824 5821 5818 5815 5812 5809 5806 5804 5801 5798 5796 5793 5791 5788 5786 5783 5781 5778 5776 5773 5771 5769 5766 5764 5762 5759 5757 5754 5751 5749 5746 5744
5845 5843 5841 5838 5835 5833 5830 5828 5825 5822 5820 5817 5815 5812 5809 5806 5803 5800 5797 5795 5792 5789 5786 5784 5781 5779 5777 5774 5772 5769 5767 5765 5762 5760 5757 5754 5752 5749 5747 5744 5741 5738 5735
5838 5836 5834 5831 5829 5826 5824 5821 5818 5816 5813 5810 5808 5805 5802 5799 5796 5793 5791 5788 5785 5783 5780 5777 5775 5772 5770 5767 5765 5762 5760 5757 5755 5753 5750 5747 5744 5741 5739 5737 5733 5730 5727
Wind_Speed
7 7 7 6 5 4 4 3 3 3 4 3 3 3 3 3 3 2 2 2 3 4 4 5 6 6 7 7 8 9 10 10 11 11 12 12 12 13 13 13 13 13 13
6 6 6 5 5 4 4 4 5 4 3 3 3 3 3 3 3 3 3 4 4 5 5 6 7 8 8 9 10 10 10 11 11 12 12 13 13 13 13 12 12 13 13
5 5 5 5 5 5 5 4 4 4 4 4 4 4 4 4 4 5 5 6 6 7 7 8 8 8 9 9 10 10 11 11 11 11 12 12 13 13 13 13 13 13 13
6 5 5 5 5 4 4 4 4 4 4 4 4 4 5 5 6 6 6 7 7 8 8 8 8 8 8 9 9 10 10 11 11 11 12 12 13 13 13 14 14 13 14
6 6 5 5 5 5 4 4 5 5 5 5 5 5 6 6 7 7 7 7 8 8 8 9 9 9 9 9 9 10 11 11 12 12 12 12 13 14 14 14 13 14 14
5 5 6 5 5 5 5 5 5 5 5 6 6 6 7 7 8 8 8 8 8 8 9 9 10 10 11 11 11 11 12 12 13 13 13 13 13 14 14 14 14 14 15
5 5 5 5 5 6 6 6 6 6 6 6 6 7 8 8 8 8 9 9 9 9 10 10 11 11 12 12 12 13 13 13 13 13 13 13 13 14 14 14 14 15 15
5 6 6 6 6 6 6 7 7 7 7 7 7 8 8 8 8 9 10 10 10 11 11 12 12 12 13 13 13 13 13 14 14 14 14 14 14 14 14 14 14 15 15
6 6 6 7 7 7 7 8 8 8 8 8 8 8 8 8 9 10 11 11 12 12 12 12 13 13 13 13 13 14 14 14 15 15 15 15 14 14 14 14 15 15 16
6 6 7 7 7 8 8 9 9 9 9 9 9 9 10 10 10 10 11 11 12 13 13 14 14 14 14 15 15 15 15 14 14 15 15 16 16 16 15 15 16 17 17
6 7 7 8 8 8 8 9 10 10 11 11 11 10 11 11 12 12 11 11 12 13 13 14 14 14 14 15 15 15 15 15 15 16 16 16 16 16 17 17 17 17 18
6 7 8 9 9 9 10 10 11 11 11 11 11 11 12 12 13 13 13 13 14 14 14 14 14 14 15 15 16 16 16 17 16 16 16 17 17 17 17 18 17 18 18
7 8 8 9 10 10 11 11 12 12 12 12 12 13 13 13 13 14 14 14 15 15 16 16 16 16 16 16 16 15 16 17 17 17 17 17 17 18 18 18 19 18 19
9 9 9 10 10 11 12 12 13 13 13 14 14 13 14 14 14 14 15 15 15 16 16 17 17 17 18 18 17 16 16 17 17 17 18 18 19 19 19 19 19 19 19
10 10 10 11 12 12 13 14 14 14 14 15 15 15 14 15 15 15 15 15 16 16 17 18 18 18 19 19 19 19 18 18 18 19 19 20 20 19 20 20 20 20 20
11 11 11 13 13 13 14 15 15 15 15 16 16 16 16 15 15 16 17 17 17 17 18 18 19 20 20 21 21 20 20 20 20 20 21 21 21 21 21 21 20 21 21
12 13 13 14 15 15 15 16 16 17 17 17 17 17 17 17 17 18 18 19 19 19 19 19 20 21 21 22 22 22 21 21 21 22 22 23 23 23 23 22 22 22 22
13 14 15 16 16 16 17 17 18 19 18 18 18 18 19 19 19 20 20 20 20 20 20 20 20 21 21 22 22 22 21 21 22 22 23 23 24 24 24 24 23 23 24
15 17 17 17 17 17 18 19 19 20 20 20 20 20 20 20 21 21 21 21 21 22 22 21 21 21 21 22 22 23 23 22 22 23 23 23 24 24 24 24 23 24 24
17 18 18 18 18 18 19 20 20 21 21 21 21 21 22 22 22 22 22 23 23 23 23 23 22 22 22 22 22 22 23 23 23 24 23 24 24 24 23 24 24 24 25
19 19 19 19 19 19 20 21 21 21 21 22 22 23 23 23 23 23 24 24 24 23 23 23 23 23 22 22 22 22 22 22 23 24 23 23 23 24 24 24 25 25 26
20 20 19 20 20 21 22 22 23 22 22 23 23 24 24 24 24 24 24 23 24 24 23 23 23 23 22 23 22 22 23 23 24 23 23 23 23 24 25 25 25 26 27
21 21 22 22 23 23 23 23 24 24 24 24 24 25 25 26 25 25 24 24 24 24 24 24 24 24 24 23 23 23 24 25 24 24 24 24 24 24 25 25 26 26 27
23 23 23 23 24 24 25 25 25 25 25 25 25 26 26 26 26 25 25 24 24 24 24 24 24 24 24 24 24 24 25 25 23 23 24 24 25 25 25 25 25 26 27
24 24 25 25 26 25 26 26 26 26 26 26 26 26 26 26 26 26 26 26 26 25 25 24 25 24 24 25 25 25 25 24 24 24 25 25 25 25 25 25 26 27 27
26 26 26 26 26 27 27 27 26 26 26 26 26 26 27 27 27 27 26 27 27 26 26 25 25 25 25 25 25 25 25 25 24 24 25 26 26 25 24 25 25 26 27
Wind_Direction
90 85 84 86 87 82 76 66 65 60 60 50 37 31 32 21 13 358 333 292 283 283 290 293 288 284 282 278 276 277 279 279 279 278 275 273 272 271 270 268 266 265 264
83 80 73 67 65 60 56 52 48 47 43 31 22 11 4 5 355 340 317 305 301 296 293 294 293 289 285 283 281 280 278 279 278 279 278 274 272 271 271 273 271 270 268
55 52 50 46 41 39 36 37 36 30 26 19 11 358 343 333 328 319 307 303 302 299 296 297 298 295 291 285 284 284 279 278 279 281 280 276 274 271 269 270 272 271 271
51 51 46 38 29 23 21 22 21 18 10 4 357 343 332 322 314 314 305 300 301 300 298 297 297 295 292 289 289 289 289 285 282 282 280 276 275 274 270 268 271 272 272
44 40 32 25 17 11 7 6 0 354 345 334 327 321 320 320 318 312 306 299 297 298 297 297 297 296 294 294 293 292 292 289 288 284 284 280 277 274 271 270 270 272 273
38 29 29 25 16 11 8 1 354 348 341 335 327 323 321 317 312 309 306 300 296 296 297 297 296 296 294 293 294 292 291 291 295 292 289 286 284 280 278 273 271 273 276
31 26 19 11 5 1 358 351 344 339 333 330 327 324 319 313 307 301 302 302 299 294 294 295 294 293 293 292 293 292 291 292 294 293 292 290 289 284 280 275 273 273 275
30 22 18 9 2 359 352 344 336 332 327 323 323 322 320 315 306 301 301 302 300 295 293 294 296 295 293 294 293 292 292 291 292 291 291 292 290 283 279 276 274 274 275
20 14 7 3 0 356 350 346 341 335 329 323 321 319 316 313 304 300 299 300 300 297 295 297 297 297 297 298 297 297 295 293 289 287 289 292 292 288 281 278 276 276 277
10 4 359 356 355 352 348 345 341 336 329 323 318 316 311 307 307 303 297 297 298 296 294 295 297 296 296 296 295 295 295 295 295 292 292 292 290 290 285 280 281 281 280
1 359 354 350 346 342 340 339 337 333 327 323 318 316 313 310 307 306 304 301 298 296 296 296 297 296 297 299 296 297 297 297 294 293 293 293 291 290 288 285 286 285 281
357 351 345 341 337 335 334 332 331 329 326 322 319 316 313 312 308 307 307 304 301 298 297 298 295 295 298 301 298 297 298 297 294 293 293 294 294 293 290 289 291 288 284
348 343 340 337 333 332 330 329 328 327 326 322 317 313 310 309 306 305 306 306 304 302 299 299 299 300 301 301 300 298 298 299 296 295 296 295 296 294 291 290 290 287 285
335 333 330 328 326 326 326 325 327 325 324 321 317 312 308 307 305 304 303 303 304 303 299 297 298 298 300 302 301 299 299 299 297 297 296 295 295 296 293 291 290 287 285
328 326 324 323 323 324 324 323 322 322 321 319 315 313 309 305 303 303 304 303 303 303 301 299 298 298 299 300 301 301 298 298 296 294 294 294 295 296 293 290 290 289 287
322 321 322 321 323 323 321 320 318 318 318 318 317 314 311 308 304 304 304 304 303 303 303 302 302 302 301 300 300 301 297 296 297 294 292 293 294 294 294 292 289 288 287
314 314 315 317 317 317 318 318 317 316 314 314 313 312 310 308 308 308 307 306 305 304 303 301 301 301 302 301 300 300 298 295 293 294 293 292 294 294 295 293 291 288 287
309 308 309 311 311 311 311 314 315 314 312 313 314 313 312 309 308 307 307 307 306 306 305 303 301 302 301 300 301 302 300 297 294 294 292 291 292 293 293 291 289 288 287
307 307 306 307 307 306 307 310 311 311 310 310 312 313 312 311 309 306 305 305 304 305 305 303 301 301 302 300 300 300 301 298 295 295 294 292 291 293 293 292 290 289 288
306 306 305 304 303 305 306 309 309 309 308 308 309 311 311 310 309 306 304 304 303 304 303 302 301 301 302 301 300 300 300 298 297 298 297 296 295 295 294 293 291 289 289
305 305 306 305 306 306 305 305 307 307 307 307 307 308 308 307 307 306 304 303 304 304 302 302 302 301 301 302 301 299 299 299 299 298 298 298 298 298 295 293 292 290 290
302 303 303 304 303 303 303 303 303 304 305 305 305 306 306 305 306 307 306 304 304 304 303 302 304 303 303 303 301 299 300 298 299 298 297 296 296 296 295 294 293 291 289
298 299 301 303 301 300 299 300 301 301 303 304 304 304 304 304 305 305 305 304 304 304 303 303 302 302 302 302 300 300 301 301 299 297 296 297 297 298 297 294 292 292 291
295 296 298 300 300 300 300 299 299 300 301 302 303 303 303 304 305 303 302 302 302 303 303 302 302 302 302 301 300 300 301 299 297 296 296 297 298 298 298 297 296 295 293
295 296 297 297 299 299 299 299 299 298 299 301 301 301 302 303 304 304 303 303 303 303 301 300 300 301 302 301 301 301 300 298 296 296 297 298 299 298 298 297 298 297 295
295 296 297 299 300 300 299 298 298 299 299 300 299 299 299 300 301 302 302 303 303 302 301 300 300 299 299 300 300 300 300 299 297 298 299 299 300 300 299 299 298 298 298